Flag for U.S.A. Weather past 2 weeks in Juneau, Alaska, U.S.A.

Now
51 °F

Passing clouds.


Feels Like: 51 °F
Forecast: 50 / 68 °F
Wind: 3 mph from West

Location: Juneau International Airport

Current Time: Aug 3, 2015 at 5:16:21 AM

Latest Report: Aug 3, 2015 at 4:53 AM


Visibility: 10 mi

Pressure: 30.00 "Hg

Humidity: 86%

Dew point: 47 °F

Location of JuneauLocation

Historic Weather in Juneau — Graph

°F

Juneau temperature yesterday

Maximum temperature yesterday: 66 °F (at 5:53 PM)
Minimum temperature yesterday: 52 °F (at 4:53 AM)
Average temperature yesterday: 59 °F

Past Weeks' High & Low Weather Summary

 TemperatureHumidityPressure
High76 °F (Jul 21, 3:53 PM)100% (Jul 21, 2:53 AM)30.15 "Hg (Jul 21, 2:53 AM)
Low47 °F (Jul 21, 4:53 AM)40% (Jul 21, 3:53 PM)29.57 "Hg (Jul 23, 4:53 PM)
Average56 °F86%29.93 "Hg
* Reported Jul 19 3:53 AM — Aug 3 3:53 AM, Juneau, Weather by CustomWeather, © 2015

Note: Actual official high and low records may vary slightly from our data, if they occured in-between our weather recording intervals... More about our weather records

Advertising

Juneau weather history for previous 24 hours

 ConditionsComfort  
Time TempWeatherWind HumidityBarometerVisibility
3:53 AM
Mon, Aug 3
52 °FPartly cloudy.No wind86%30.00 "Hg10 mi
2:53 AM53 °FPassing clouds.5 mph86%30.00 "Hg10 mi
1:53 AM54 °FOvercast.3 mph86%30.01 "Hg10 mi
12:53 AM55 °FMostly cloudy.No wind83%30.01 "Hg10 mi
11:53 PM
Sun, Aug 2
55 °FMostly cloudy.No wind87%30.00 "Hg10 mi
10:53 PM56 °FPassing clouds.No wind84%29.99 "Hg10 mi
9:53 PM59 °FBroken clouds.No wind72%29.99 "Hg10 mi
8:53 PM61 °FPartly sunny.3 mph67%29.98 "Hg10 mi
7:53 PM62 °FPartly sunny.6 mph73%29.97 "Hg10 mi
6:53 PM63 °FBroken clouds.3 mph68%29.97 "Hg10 mi
5:53 PM66 °FBroken clouds.7 mph63%29.96 "Hg10 mi
4:53 PM64 °FBroken clouds.10 mph65%29.97 "Hg10 mi
3:53 PM65 °FBroken clouds.10 mph66%29.98 "Hg10 mi
2:53 PM64 °FBroken clouds.13 mph68%29.99 "Hg10 mi
1:53 PM64 °FBroken clouds.14 mph68%30.00 "Hg10 mi
12:53 PM64 °FPartly sunny.16 mph70%30.00 "Hg10 mi
11:53 AM63 °FPartly sunny.15 mph73%30.01 "Hg10 mi
10:53 AM63 °FBroken clouds.10 mph73%30.02 "Hg10 mi
9:53 AM60 °FOvercast.8 mph78%30.03 "Hg10 mi
8:53 AM59 °FMostly cloudy.7 mph81%30.03 "Hg10 mi
7:53 AM57 °FBroken clouds.3 mph78%30.03 "Hg10 mi
6:53 AM54 °FMore clouds than sun.No wind83%30.04 "Hg10 mi
5:53 AM52 °FMore clouds than sun.No wind93%30.04 "Hg10 mi
Weather by CustomWeather, © 2015

See weather overviewHow to use our weather pages